Change the Weather History Date:

Sunday, October 7, 2012

  Actual Average (KARA) Record (KARA)
Temperature  
Mean Temperature 63 °F 73 °F  
Max Temperature 71 °F 83 °F 91 °F (1981)
Min Temperature 55 °F 62 °F 45 °F (1952)
Degree Days  
Heating Degree Days 2 0  
Month to date heating degree days 0  
Since 1 July heating degree days 1  
Cooling Degree Days 0 8  
Month to date cooling degree days 62  
Year to date cooling degree days 2618  
Growing Degree Days 13 (Base 50)    
Moisture  
Dew Point 55 °F    
Average Humidity 80    
Maximum Humidity 95    
Minimum Humidity 60    
Precipitation  
Precipitation 0.00 in 0.20 in 2.50 in (2007)
Month to date precipitation 1.46  
Year to date precipitation 46.94  
Sea Level Pressure  
Sea Level Pressure 30.10 in    
Wind  
Wind Speed 10 mph ()    
Max Wind Speed 16 mph    
Max Gust Speed 21 mph    
Visibility 10.0 miles    
Events      
T = Trace of Precipitation, MM = Missing Value Source: Averaged Metar Reports

Daily Weather History Graph

Daily Weather History Graph

Search for Another Location

Airport or City:

Trip Planner

Search our weather history database for the weather conditions in past years. The results will help you decide how hot, cold, wet, or windy it might be!

Date:

Astronomy

Oct. 07, 2012 Rise Set
Actual Time 7:05 AM CDT 6:45 PM CDT
Civil Twilight 6:41 AM CDT 7:09 PM CDT
Nautical Twilight 6:13 AM CDT 7:37 PM CDT
Astronomical Twilight 5:46 AM CDT 8:05 PM CDT
Moon No Moon Rise 1:25 PM CDT (10/7)
Length of Visible Light 12h 28m
Length of Day
11h 40m
Waning Gibbous, 56% of the Moon is Illuminated
Oct 7
Waning Gibbous
Oct 8
Last Quarter
Oct 15
New
Oct 21
First Quarter
Oct 29
Full

Hourly Weather History & Observations

Time (CDT) Temp. Dew Point Humidity Pressure Visibility Wind Dir Wind Speed Gust Speed Precip Events Conditions
12:15 AM 60.1 °F 57.7 °F 92% 30.06 in 10.0 mi North 11.5 mph 18.4 mph N/A   Overcast
12:35 AM 60.1 °F 57.7 °F 92% 30.06 in 10.0 mi North 11.5 mph - N/A   Overcast
12:55 AM 59.9 °F 57.2 °F 91% 30.07 in 10.0 mi North 16.1 mph 19.6 mph N/A   Overcast
1:15 AM 59.4 °F 56.8 °F 91% 30.08 in 10.0 mi North 11.5 mph - N/A   Overcast
1:35 AM 59.0 °F 56.5 °F 91% 30.08 in 10.0 mi North 13.8 mph 20.7 mph N/A   Overcast
1:55 AM 58.8 °F 56.3 °F 91% 30.08 in 10.0 mi North 13.8 mph 18.4 mph N/A   Overcast
2:15 AM 58.3 °F 56.3 °F 93% 30.08 in 10.0 mi North 13.8 mph - N/A   Overcast
2:35 AM 58.3 °F 56.3 °F 93% 30.08 in 10.0 mi North 9.2 mph - N/A   Overcast
2:55 AM 58.1 °F 56.3 °F 94% 30.08 in 10.0 mi North 13.8 mph 17.3 mph N/A   Overcast
3:15 AM 58.1 °F 55.8 °F 92% 30.08 in 10.0 mi North 12.7 mph 20.7 mph N/A   Overcast
3:35 AM 57.2 °F 55.4 °F 94% 30.08 in 10.0 mi North 8.1 mph - N/A   Mostly Cloudy
3:55 AM 57.2 °F 55.8 °F 95% 30.08 in 10.0 mi North 8.1 mph - N/A   Overcast
4:15 AM 57.6 °F 55.6 °F 93% 30.08 in 10.0 mi North 15.0 mph - N/A   Overcast
4:35 AM 56.8 °F 54.5 °F 92% 30.09 in 10.0 mi North 11.5 mph 18.4 mph N/A   Overcast
4:55 AM 56.3 °F 53.8 °F 91% 30.09 in 10.0 mi North 12.7 mph 18.4 mph N/A   Overcast
5:15 AM 56.3 °F 53.6 °F 91% 30.09 in 10.0 mi North 10.4 mph 16.1 mph N/A   Overcast
5:35 AM 56.3 °F 53.6 °F 91% 30.10 in 10.0 mi North 9.2 mph - N/A   Overcast
5:55 AM 56.3 °F 53.6 °F 91% 30.10 in 10.0 mi North 9.2 mph - N/A   Overcast
6:15 AM 56.3 °F 53.6 °F 91% 30.11 in 10.0 mi NNE 8.1 mph - N/A   Overcast
6:35 AM 56.3 °F 53.6 °F 91% 30.11 in 10.0 mi North 8.1 mph - N/A   Overcast
6:55 AM 56.1 °F 53.6 °F 91% 30.11 in 10.0 mi North 11.5 mph - N/A   Overcast
7:15 AM 56.3 °F 53.2 °F 89% 30.12 in 10.0 mi North 9.2 mph - N/A   Overcast
7:35 AM 55.9 °F 52.9 °F 89% 30.13 in 10.0 mi North 11.5 mph 17.3 mph N/A   Overcast
7:55 AM 56.3 °F 52.7 °F 88% 30.13 in 10.0 mi North 11.5 mph - N/A   Overcast
8:15 AM 56.3 °F 52.2 °F 86% 30.13 in 10.0 mi North 10.4 mph - N/A   Overcast
8:35 AM 56.7 °F 52.3 °F 85% 30.14 in 10.0 mi North 11.5 mph 16.1 mph N/A   Overcast
8:55 AM 57.0 °F 52.0 °F 83% 30.14 in 10.0 mi North 13.8 mph 19.6 mph N/A   Overcast
9:15 AM 57.2 °F 51.8 °F 82% 30.15 in 10.0 mi North 13.8 mph 19.6 mph N/A   Overcast
9:35 AM 57.2 °F 51.6 °F 82% 30.16 in 10.0 mi North 10.4 mph 19.6 mph N/A   Overcast
9:55 AM 58.6 °F 52.3 °F 80% 30.16 in 10.0 mi NNE 12.7 mph 17.3 mph N/A   Overcast
10:15 AM 59.7 °F 52.5 °F 77% 30.16 in 10.0 mi NNE 9.2 mph - N/A   Overcast
10:35 AM 60.8 °F 52.7 °F 75% 30.15 in 10.0 mi North 11.5 mph 17.3 mph N/A   Overcast
10:55 AM 62.2 °F 53.1 °F 72% 30.15 in 10.0 mi NNE 10.4 mph - N/A   Overcast
11:15 AM 64.4 °F 54.1 °F 69% 30.15 in 10.0 mi North 12.7 mph 18.4 mph N/A   Scattered Clouds
11:35 AM 65.3 °F 54.3 °F 68% 30.14 in 10.0 mi North 11.5 mph 16.1 mph N/A   Clear
11:55 AM 66.0 °F 54.5 °F 66% 30.14 in 10.0 mi NNE 11.5 mph - N/A   Clear
12:15 PM 65.7 °F 54.3 °F 67% 30.14 in 10.0 mi North 12.7 mph 18.4 mph N/A   Clear
12:35 PM 65.8 °F 54.7 °F 67% 30.13 in 10.0 mi North 13.8 mph 20.7 mph N/A   Clear
12:55 PM 65.8 °F 54.5 °F 67% 30.13 in 10.0 mi North 13.8 mph 18.4 mph N/A   Clear
1:15 PM 67.1 °F 55.8 °F 67% 30.12 in 10.0 mi NNE 10.4 mph 16.1 mph N/A   Clear
1:35 PM 66.7 °F 55.0 °F 66% 30.11 in 10.0 mi North 11.5 mph 17.3 mph N/A   Clear
1:55 PM 67.5 °F 55.2 °F 65% 30.10 in 10.0 mi North 11.5 mph 18.4 mph N/A   Clear
2:15 PM 68.0 °F 55.4 °F 64% 30.09 in 10.0 mi NNE 9.2 mph 17.3 mph N/A   Clear
2:35 PM 69.4 °F 56.3 °F 63% 30.08 in 10.0 mi North 12.7 mph 17.3 mph N/A   Clear
2:55 PM 69.8 °F 56.1 °F 62% 30.07 in 10.0 mi North 10.4 mph 18.4 mph N/A   Clear
3:15 PM 71.2 °F 57.0 °F 61% 30.06 in 10.0 mi NNE 12.7 mph 18.4 mph N/A   Clear
3:35 PM 70.9 °F 56.7 °F 61% 30.05 in 10.0 mi North 12.7 mph - N/A   Clear
3:55 PM 71.6 °F 57.0 °F 60% 30.05 in 10.0 mi North 12.7 mph 16.1 mph N/A   Clear
4:15 PM 71.6 °F 57.2 °F 60% 30.04 in 10.0 mi North 13.8 mph 18.4 mph N/A   Clear
4:35 PM 70.2 °F 56.3 °F 61% 30.04 in 10.0 mi NNE 12.7 mph 17.3 mph N/A   Clear
4:55 PM 70.2 °F 56.5 °F 62% 30.04 in 10.0 mi NNE 11.5 mph - N/A   Clear
5:15 PM 70.0 °F 56.5 °F 62% 30.04 in 10.0 mi North 12.7 mph 18.4 mph N/A   Clear
5:35 PM 69.1 °F 56.3 °F 64% 30.05 in 10.0 mi North 10.4 mph - N/A   Clear
5:55 PM 68.5 °F 56.3 °F 65% 30.05 in 10.0 mi North 9.2 mph - N/A   Clear
6:15 PM 67.1 °F 55.8 °F 67% 30.06 in 10.0 mi North 11.5 mph 18.4 mph N/A   Clear
6:35 PM 65.3 °F 54.7 °F 68% 30.06 in 10.0 mi North 11.5 mph 17.3 mph N/A   Clear
6:55 PM 64.0 °F 54.5 °F 71% 30.08 in 10.0 mi North 12.7 mph 16.1 mph N/A   Clear
7:15 PM 63.0 °F 54.5 °F 74% 30.08 in 10.0 mi North 9.2 mph - N/A   Clear
7:55 PM 61.7 °F 54.7 °F 78% 30.10 in 10.0 mi NNE 8.1 mph - N/A   Clear
8:15 PM 60.8 °F 54.1 °F 79% 30.11 in 10.0 mi NNE 10.4 mph 17.3 mph N/A   Clear
8:55 PM 59.4 °F 53.4 °F 81% 30.12 in 10.0 mi NNE 8.1 mph - N/A   Clear
9:15 PM 59.0 °F 53.1 °F 81% 30.13 in 10.0 mi NNE 8.1 mph 16.1 mph N/A   Clear
9:35 PM 58.1 °F 53.1 °F 83% 30.13 in 10.0 mi NNE 9.2 mph - N/A   Clear
9:55 PM 57.6 °F 53.1 °F 85% 30.13 in 10.0 mi NNE 5.8 mph - N/A   Clear
10:15 PM 57.2 °F 53.6 °F 88% 30.13 in 10.0 mi NNE 5.8 mph - N/A   Scattered Clouds
10:35 PM 56.8 °F 53.6 °F 89% 30.13 in 10.0 mi NE 5.8 mph - N/A   Scattered Clouds
10:55 PM 56.3 °F 53.6 °F 91% 30.13 in 10.0 mi NNE 3.5 mph - N/A   Scattered Clouds
11:15 PM 55.9 °F 54.0 °F 93% 30.13 in 10.0 mi North 4.6 mph - N/A   Clear
11:35 PM 55.8 °F 53.6 °F 92% 30.13 in 10.0 mi North 4.6 mph - N/A   Scattered Clouds
11:55 PM 55.4 °F 53.6 °F 94% 30.13 in 10.0 mi North 3.5 mph - N/A   Clear